Voltar ao catálogo

SBIRS GEO 2

USA 241

AtivoMilitarGEO
NORAD 39120·PAYLOAD·🇺🇸 United States

Lançado Mar 19, 2013 de Cape Canaveral Space Force Station

Loading…

TLE

AtualizadoSource: Space-Track

Época: Sep 14, 2026, 21:53 UTC

1 39120U 13011A   26257.91238071 -.00000151  00000-0  00000-0 0  9992
2 39120   4.6806  52.4474 0002439 139.6350  33.4887  1.00270877 49437

Acompanhe SBIRS GEO 2 em tempo real com AllMySat

Download on the App Store